Location: Ocean City
(38.3360°N, 75.0850°W)
Time: 15:34:52
(UTC-04:00)

BEESAT 2 - Pass Details

Date: 23 May 2019
Orbit: 502 x 528 km, 64.9° (Epoch: 23 June)

Event Time Altitude Azimuth Distance (km) Brightness Sun altitude
Rises 04:44:01 0° 316° (NW) 2,669 ? -10.7°
Reaches altitude 10° 04:46:29 10° 302° (WNW) 1,776 ? -10.3°
Maximum altitude 04:49:43 24° 248° (WSW) 1,116 ? -9.8°
Drops below altitude 10° 04:52:57 10° 193° (SSW) 1,763 ? -9.3°
Sets 04:55:24 0° 179° (S) 2,644 ? -8.9°
